sat.trackr.live / text

‹ back to catalog

STARLINK-37782

NORAD 69342 · 2026-122P

PAYLOAD ACTIVE UNKNOWN

§ Identity

Operator
Country
US
Launch date
2026-06-03
Launch site
AFWTR
Launch vehicle
Mass (kg)
RCS (m²)

Purposes: comms

External: N2YO · Heavens-Above · Gunter

§ Orbital elements

Epoch: 2026-09-19T00:36:25.426656Z

Period
93.91 min
Inclination
97.2841°
Eccentricity
0.0000758
Mean motion
15.33449543 rev/d
Perigee alt
465.0 km
Apogee alt
466.0 km
Semi-major
6,843.7 km
B*
4.2761e-4
RAAN
290.6718°
Arg perigee
112.1747°
Mean anomaly
247.9576°
Rev number
1,657

§ Raw data

STARLINK-377821 69342U 26122P   26262.02529429  .00013757  00000+0  42761-3 0  99932 69342  97.2841 290.6718 0000758 112.1747 247.9576 15.33449543 16573

JSON: /api/v1/satellites/69342 · /tle

For live sub-satellite position, see the globe view (requires WebGL).

§ Visibility from observer

Set your observer location to see the next 7 days of passes ≥ 10°. The values pass through the URL so the page stays shareable.

No JS? Fill the form by hand. The geolocation button needs JavaScript.